Decatur, IL

4:11 AM CST on January 16, 2018 (GMT -0600)
Decatur

Weather History for KDEC - October, 2010

Change the Weather History Date:

Friday, October 15, 2010

  Actual Average Record
Temperature  
Mean Temperature 53 °F 55 °F  
Max Temperature 65 °F 66 °F 82 °F (2007)
Min Temperature 40 °F 43 °F 28 °F (2006)
Degree Days  
Heating Degree Days 12 11  
Month to date heating degree days 102 134  
Since 1 July heating degree days 138 207  
Cooling Degree Days 0 0  
Month to date cooling degree days 12 14  
Year to date cooling degree days 1486 1043  
Growing Degree Days 2 (Base 50)    
Moisture  
Dew Point 37 °F    
Average Humidity 61    
Maximum Humidity 85    
Minimum Humidity 37    
Precipitation  
Precipitation 0.00 in 0.11 in 0.98 in (2007)
Month to date precipitation 0.24 1.48  
Year to date precipitation 32.81 30.68  
Sea Level Pressure  
Sea Level Pressure 30.06 in    
Wind  
Wind Speed 9 mph (NNW)    
Max Wind Speed 17 mph    
Max Gust Speed 22 mph    
Visibility 10 miles    
Events      
T = Trace of Precipitation, MM = Missing Value Source: NWS Daily Summary

Daily Weather History Graph

Daily Weather History Graph

Search for Another Location

Airport or City:

Trip Planner

Search our weather history database for the weather conditions in past years. The results will help you decide how hot, cold, wet, or windy it might be!

Date:

Astronomy

Oct. 15, 2010 Rise Set
Actual Time 7:05 AM CDT 6:16 PM CDT
Civil Twilight 6:38 AM CDT 6:43 PM CDT
Nautical Twilight 6:07 AM CDT 7:14 PM CDT
Astronomical Twilight 5:35 AM CDT 7:45 PM CDT
Moon 2:37 PM CDT (10/15) No Moon Set
Length of Visible Light 12h 04m
Length of Day
11h 10m
First Quarter, 58% of the Moon is Illuminated
Oct 15
First Quarter
Oct 22
Full
Oct 30
Last Quarter
Nov 5
New
Nov 13
First Quarter

Hourly Weather History & Observations

Time (CDT) Temp. Windchill Dew Point Humidity Pressure Visibility Wind Dir Wind Speed Gust Speed Precip Events Conditions
12:54 AM 57.0 °F - 37.0 °F 47% 29.85 in 10.0 mi WNW 13.8 mph 21.9 mph N/A   Clear
1:54 AM 55.9 °F - 37.0 °F 49% 29.87 in 10.0 mi NW 12.7 mph - N/A   Clear
2:54 AM 55.0 °F - 37.0 °F 51% 29.88 in 10.0 mi NNW 15.0 mph - N/A   Clear
3:54 AM 53.1 °F - 36.0 °F 52% 29.91 in 10.0 mi NNW 13.8 mph - N/A   Clear
4:54 AM 51.1 °F - 36.0 °F 56% 29.94 in 10.0 mi NNW 12.7 mph - N/A   Clear
5:54 AM 50.0 °F - 36.0 °F 59% 29.97 in 10.0 mi NNW 10.4 mph - N/A   Clear
6:54 AM 46.9 °F - 36.0 °F 66% 30.01 in 10.0 mi WNW 9.2 mph - N/A   Clear
7:54 AM 48.0 °F - 36.0 °F 63% 30.04 in 10.0 mi NW 9.2 mph - N/A   Clear
8:54 AM 52.0 °F - 37.0 °F 57% 30.07 in 10.0 mi NW 11.5 mph - N/A   Clear
9:54 AM 55.9 °F - 39.0 °F 53% 30.09 in 10.0 mi NNW 13.8 mph - N/A   Clear
10:54 AM 60.1 °F - 39.0 °F 46% 30.10 in 10.0 mi NNW 10.4 mph - N/A   Clear
11:54 AM 61.0 °F - 37.9 °F 42% 30.12 in 10.0 mi NNW 12.7 mph 19.6 mph N/A   Clear
12:54 PM 63.0 °F - 37.9 °F 40% 30.10 in 10.0 mi NW 9.2 mph 20.7 mph N/A   Clear
1:54 PM 64.0 °F - 37.0 °F 37% 30.09 in 10.0 mi NW 12.7 mph - N/A   Clear
2:54 PM 64.9 °F - 37.0 °F 36% 30.09 in 10.0 mi NW 9.2 mph - N/A   Clear
3:54 PM 64.9 °F - 37.0 °F 36% 30.09 in 10.0 mi North 11.5 mph - N/A   Clear
4:54 PM 64.0 °F - 37.0 °F 37% 30.10 in 10.0 mi NW 9.2 mph - N/A   Clear
5:54 PM 60.1 °F - 37.0 °F 42% 30.11 in 10.0 mi North 6.9 mph - N/A   Clear
6:54 PM 57.9 °F - 37.0 °F 46% 30.13 in 10.0 mi North 3.5 mph - N/A   Clear
7:54 PM 55.0 °F - 37.9 °F 53% 30.14 in 10.0 mi NW 4.6 mph - N/A   Clear
8:54 PM 50.0 °F - 37.9 °F 63% 30.14 in 10.0 mi Calm Calm - N/A   Clear
9:54 PM 48.9 °F - 37.9 °F 66% 30.16 in 7.0 mi Calm Calm - N/A   Clear
10:54 PM 39.9 °F 36.7 °F 36.0 °F 86% 30.17 in 10.0 mi East 4.6 mph - N/A   Clear
11:54 PM 43.0 °F - 34.0 °F 71% 30.16 in 10.0 mi Calm Calm - N/A   Clear